Location: Asheville, NC
(35.6000°N, 82.5500°W)
Time: 06:31:12
(UTC-05:00)

Vanguard 1 - Pass Details

Date: 15 December 2017
Orbit: 649 x 3834 km, 34.3° (Epoch: 17 January)

Event Time Altitude Azimuth Distance (km) Brightness Sun altitude
Rises 08:30:27 0° 234° (SW) 7,848 14.5 9.0°
Reaches altitude 10° 08:35:47 10° 231° (SW) 6,916 14.3 9.9°
Maximum altitude 08:58:50 65° 156° (SSE) 3,561 13.5 13.5°
Drops below altitude 10° 09:14:30 10° 80° (E) 4,970 14.2 15.8°
Sets 09:17:35 0° 77° (ENE) 5,636 14.4 16.2°
